User: anonymous   Login
Location: Unspecified
(0.0000°N, 0.0000°E)
Time: 17:46:51
(UTC+00:00)
Language:

COSMOS 2489 - Orbit

View from above orbital plane
View from above orbital plane
View from above satellite
View from above satellite

Ground track
Ground track

The orbit data is extracted from the following two-line orbital elements,

1 39484U 13076B   18049.70891742 +.00000030 +00000-0 +14918-3 0  9994
2 39484 082.4862 263.9650 0021022 243.8237 116.0671 12.42884621188442
Epoch (UTC): 18 February 2018 17:00:50
Eccentricity: 0.0021022
inclination: 82.4862°
perigee height: 1478 km
apogee height: 1511 km
right ascension of ascending node: 263.9650°
argument of perigee: 243.8237°
revolutions per day: 12.42884621
mean anomaly at epoch: 116.0671°
orbit number at epoch: 18844

The dashed part of the orbit path shows where the satellite is in the earth's shadow,  

DLR